Find Starlink 5450

NORAD ID: 54778 Int'l Des: 2022-175 Owner: SPXS Country: US Constellation: starlink operational
LEOCIRCULAR

Live Position

Loading 3D Globe...

About Starlink 5450

Description loading...

Upcoming Passes

Passes for default location (London). Set your location on the main map for personalized predictions.

Altitude History

Loading altitude history...

Two-Line Element Set

1 54778U 22175W 26126.28561062 .00001124 00000-0 88680-4 0 9997
2 54778 53.2161 130.6281 0001218 76.8654 283.2474 15.08841638188821
Epoch: May 6, 2026 • Age: 20 hours

Current Status

Altitude 540.6 km
Velocity 7.59 km/s
Sub-Earth Point 1.46°N, 40.1°E
Launch Date Dec 17, 2022
Age 3.3 years
Type internet

Technical Details

Classification Payload
Mass 305.00 kg
Dry Mass 290.00 kg
Total Mass 305.00 kg
Length 0.20 m
Diameter 2.80 m
Span 9.00 m
Shape Box + pan
Manufacturer SPXS
Bus Type Starlink
Phase Status In Orbit
Owner/State SPXS/US

Most Searched